ICOR SV

operational
NORAD ID: 68127 Int'l Des: 2026-046A Country: USA
LEOCIRCULARRETROGRADE

关于 ICOR SV

正在加载描述...

实时位置

正在加载3D地球...

即将过境

高度历史

Altitude vs Time

uPlot chart will show altitude changes over time

两行轨道根数

1 68127U 26046A 26072.90953491 .00482503 92133-4 10434-2 0 9997
2 68127 123.0797 224.1306 0140888 188.2572 171.6170 15.82606913 290
Epoch: Mar 13, 2026 • Age: 30 hours

当前状态

高度 244.6 km
速度 7.81 km/s
星下点 20.52°N, 156.87°E
类型 other

大型星座

Loading constellations...